Flag for U.S.A. Weather past 2 weeks in Durango, Colorado, U.S.A.

Now
54 °F

Clear.


Feels Like: 54 °F
Forecast: 46 / 77 °F
Wind: 3 mph from East

Location: Durango-La Plata County Airport

Current Time: Sep 15, 2014 at 4:12:55 AM

Latest Report: Sep 15, 2014 at 2:53 AM


Visibility: 10 mi

Pressure: 30.04 "Hg

Humidity: 62%

Dew point: 41 °F

Location of DurangoLocation

Historic Weather in Durango — Graph

°F

Durango temperature yesterday

Maximum temperature yesterday: 81 °F (at 3:53 PM)
Minimum temperature yesterday: 43 °F (at 6:53 AM)
Average temperature yesterday: 63 °F

Past Weeks' High & Low Weather Summary

 TemperatureHumidityPressure
High86 °F (Sep 2, 1:53 PM)100% (Sep 9, 11:53 PM)30.19 "Hg (Sep 9, 11:53 PM)
Low40 °F (Sep 11, 5:53 AM)11% (Sep 3, 4:53 PM)29.79 "Hg (Sep 3, 6:53 PM)
Average63 °F48%29.98 "Hg
* Reported Aug 31 1:53 AM — Sep 15 1:53 AM, Durango, Weather by CustomWeather, © 2014

Note: Actual official high and low records may vary slightly from our data, if they occured in-between our weather recording intervals... More about our weather records

Advertising

Durango weather history for previous 24 hours

 ConditionsComfort  
Time TempWeatherWind HumidityBarometerVisibility
1:53 AM
Sep 15
55 °FPassing clouds.5 mph57%30.03 "Hg10 mi
12:53 AM56 °FPassing clouds.8 mph53%30.02 "Hg10 mi
11:53 PM
Sep 14
60 °FPassing clouds.6 mph47%30.00 "Hg10 mi
10:53 PM60 °FPassing clouds.No wind46%30.00 "Hg10 mi
9:53 PM62 °FClear.5 mph39%29.99 "Hg10 mi
8:53 PM68 °FClear.3 mph30%29.97 "Hg10 mi
7:53 PM73 °FSunny.7 mph25%29.96 "Hg10 mi
6:53 PM77 °FSunny.10 mph22%29.97 "Hg10 mi
5:53 PM80 °FPassing clouds.12 mph20%29.94 "Hg10 mi
4:53 PM80 °FSunny.N/A20%29.95 "Hg10 mi
3:53 PM81 °FSunny.9 mph20%29.96 "Hg10 mi
2:53 PM78 °FPassing clouds.No wind18%29.98 "Hg10 mi
1:53 PM77 °FPassing clouds.No wind22%30.01 "Hg10 mi
12:53 PM76 °FSunny.5 mph31%30.05 "Hg10 mi
11:53 AM73 °FSunny.7 mph37%30.07 "Hg10 mi
10:53 AM69 °FSunny.9 mph42%30.10 "Hg10 mi
9:53 AM66 °FSunny.5 mph45%30.11 "Hg10 mi
8:53 AM60 °FSunny.No wind49%30.11 "Hg10 mi
7:53 AM50 °FSunny.No wind61%30.14 "Hg10 mi
6:53 AM43 °FClear.No wind74%30.13 "Hg10 mi
5:53 AM48 °FClear.No wind66%30.07 "Hg10 mi
4:53 AM46 °FClear.No wind66%30.08 "Hg10 mi
Weather by CustomWeather, © 2014

See weather overviewHow to use our weather pages